Wetterdaten: aktuell Mittwoch, 20.10.2021 00:08
Datum Zeit Temperatur Bodentemp. Luftfeuchte Luftdruck Regen Wind Richtung Richtung Sonnenschein
20.10.2021 00:08 13,5 C 14,9 C 96 % 1014 hPa 0,0 l/m 8,1 km/h (2 Bft) S22.5 185 0 min
20.10.2021 00:03 13,5 C 14,8 C 96 % 1014 hPa 0,0 l/m 13,8 km/h (3 Bft) S45 190 0 min
19.10.2021 23:59 13,5 C 14,9 C 96 % 1014 hPa 0,0 l/m 12,3 km/h (2 Bft) S-SW22.5 195 0 min
19.10.2021 23:54 13,5 C 15,0 C 96 % 1014 hPa 0,0 l/m 9,4 km/h (2 Bft) S-SW22.5 195 0 min
19.10.2021 23:49 13,5 C 15,1 C 96 % 1014 hPa 0,0 l/m 12,3 km/h (2 Bft) S-SW22.5 195 0 min
19.10.2021 23:44 13,5 C 15,1 C 96 % 1014 hPa 0,0 l/m 14,3 km/h (3 Bft) S-SW67.5 200 0 min
19.10.2021 23:39 13,5 C 15,1 C 96 % 1014 hPa 0,0 l/m 12,8 km/h (3 Bft) S-SW45 195 0 min
19.10.2021 23:34 13,5 C 15,1 C 96 % 1015 hPa 0,0 l/m 12,8 km/h (3 Bft) S-SW45 195 0 min
19.10.2021 23:28 13,5 C 15,0 C 96 % 1015 hPa 0,0 l/m 16,1 km/h (3 Bft) S-SW45 200 0 min
19.10.2021 23:24 13,5 C 15,0 C 96 % 1015 hPa 0,0 l/m 9,8 km/h (2 Bft) S-SW22.5 195 0 min
19.10.2021 23:19 13,5 C 14,8 C 96 % 1015 hPa 0,0 l/m 14,8 km/h (3 Bft) S-SW45 200 0 min
19.10.2021 23:14 13,5 C 14,8 C 96 % 1015 hPa 0,0 l/m 15,1 km/h (3 Bft) S-SW45 200 0 min
19.10.2021 23:09 13,5 C 14,7 C 96 % 1015 hPa 0,0 l/m 14,3 km/h (3 Bft) S-SW22.5 195 0 min
19.10.2021 23:04 13,5 C 14,7 C 96 % 1015 hPa 0,0 l/m 10,3 km/h (2 Bft) S22.5 190 0 min
19.10.2021 22:59 13,5 C 14,6 C 96 % 1015 hPa 0,0 l/m 10,3 km/h (2 Bft) S22.5 190 0 min
19.10.2021 22:53 13,5 C 14,6 C 96 % 1015 hPa 0,0 l/m 10,3 km/h (2 Bft) S22.5 190 0 min
19.10.2021 22:49 13,5 C 14,6 C 96 % 1015 hPa 0,0 l/m 10,8 km/h (2 Bft) S-SW22.5 205 0 min
19.10.2021 22:44 14,0 C 14,6 C 95 % 1015 hPa 0,0 l/m 6,9 km/h (2 Bft) S-SW 200 0 min
19.10.2021 22:39 14,0 C 14,7 C 95 % 1015 hPa 0,0 l/m 8,5 km/h (2 Bft) SW45 215 0 min
19.10.2021 22:34 14,0 C 14,8 C 95 % 1015 hPa 0,0 l/m 8,7 km/h (2 Bft) S-SW45 200 0 min
19.10.2021 22:29 14,0 C 14,7 C 95 % 1015 hPa 0,0 l/m 9,0 km/h (2 Bft) S-SW 200 0 min
19.10.2021 22:24 14,0 C 14,7 C 95 % 1015 hPa 0,0 l/m 0,0 km/h (0 Bft) S 180 0 min
19.10.2021 22:18 14,0 C 14,6 C 95 % 1015 hPa 0,0 l/m 0,0 km/h (0 Bft) S 180 0 min
19.10.2021 22:14 14,0 C 14,8 C 95 % 1015 hPa 0,0 l/m 0,0 km/h (0 Bft) S 180 0 min
19.10.2021 22:09 14,0 C 14,8 C 95 % 1015 hPa 0,0 l/m 0,0 km/h (0 Bft) S 180 0 min
19.10.2021 22:04 14,0 C 14,9 C 95 % 1015 hPa 0,0 l/m 0,0 km/h (0 Bft) S 175 0 min
19.10.2021 21:59 14,2 C 15,1 C 87 % 1015 hPa 0,0 l/m 5,3 km/h (1 Bft) S22.5 185 0 min
19.10.2021 21:54 16,2 C 15,0 C 87 % 1015 hPa 0,0 l/m 5,3 km/h (1 Bft) S22.5 185 0 min
19.10.2021 21:49 16,2 C 15,2 C 87 % 1015 hPa 0,0 l/m 6,5 km/h (2 Bft) S 170 0 min
19.10.2021 21:43 16,2 C 15,2 C 87 % 1015 hPa 0,0 l/m 0,0 km/h (0 Bft) S-SO 165 0 min
19.10.2021 21:39 16,2 C 15,3 C 87 % 1015 hPa 0,0 l/m 7,1 km/h (2 Bft) S-SO22.5 160 0 min
19.10.2021 21:34 16,2 C 15,3 C 87 % 1015 hPa 0,0 l/m 0,0 km/h (0 Bft) S-SW 195 0 min
19.10.2021 21:29 16,2 C 15,6 C 87 % 1015 hPa 0,0 l/m 7,0 km/h (2 Bft) S-SO22.5 165 0 min
19.10.2021 21:24 16,2 C 15,9 C 87 % 1015 hPa 0,0 l/m 7,0 km/h (2 Bft) S-SO22.5 165 0 min
19.10.2021 21:19 16,2 C 15,9 C 87 % 1016 hPa 0,0 l/m 7,0 km/h (2 Bft) S22.5 175 0 min
19.10.2021 21:14 16,2 C 16,2 C 87 % 1016 hPa 0,0 l/m 5,5 km/h (2 Bft) S 185 0 min
19.10.2021 21:08 16,2 C 16,3 C 87 % 1016 hPa 0,0 l/m 8,7 km/h (2 Bft) S22.5 190 0 min
19.10.2021 21:04 16,8 C 16,7 C 87 % 1016 hPa 0,0 l/m 11,0 km/h (2 Bft) S-SW22.5 195 0 min
19.10.2021 20:59 16,8 C 16,8 C 87 % 1016 hPa 0,0 l/m 11,0 km/h (2 Bft) S-SW22.5 195 0 min
19.10.2021 20:54 16,8 C 17,0 C 87 % 1016 hPa 0,0 l/m 15,7 km/h (3 Bft) S-SW45 195 0 min
19.10.2021 20:49 16,8 C 17,0 C 87 % 1016 hPa 0,0 l/m 8,3 km/h (2 Bft) S45 190 0 min
19.10.2021 20:44 16,8 C 16,9 C 87 % 1016 hPa 0,0 l/m 8,3 km/h (2 Bft) S45 190 0 min
19.10.2021 20:39 16,8 C 17,0 C 87 % 1016 hPa 0,0 l/m 16,6 km/h (3 Bft) S-SW45 200 0 min
19.10.2021 20:33 16,8 C 17,0 C 87 % 1016 hPa 0,0 l/m 14,3 km/h (3 Bft) S-SW45 200 0 min
19.10.2021 20:29 16,8 C 17,0 C 87 % 1016 hPa 0,0 l/m 12,0 km/h (2 Bft) S-SW45 200 0 min
19.10.2021 20:24 16,8 C 16,9 C 87 % 1016 hPa 0,0 l/m 14,3 km/h (3 Bft) S-SW45 200 0 min
19.10.2021 20:19 16,8 C 17,0 C 87 % 1016 hPa 0,0 l/m 11,0 km/h (2 Bft) S-SW45 205 0 min
19.10.2021 20:14 16,8 C 17,0 C 87 % 1016 hPa 0,0 l/m 11,1 km/h (2 Bft) SW45 225 0 min
19.10.2021 20:09 16,8 C 17,0 C 87 % 1016 hPa 0,0 l/m 11,1 km/h (2 Bft) S-SW67.5 210 0 min
_ Min-Zeit 01:04 01:14 14:43 23:39 - 01:14 - - -
Minimum _ 9,3 C 9,5 C 79 % 1014 hPa - 0,0 km/h (0 Bft) - - -
_ Max-Zeit 20:04 16:54 22:49 01:04 01:04 17:54 - - 01:04
Maximum _ 16,8 C 17,2 C 96 % 1021 hPa 0,0 l/m 24,8 km/h
SW (4 Bft)
- - 0 min
Durchschnitt _ 13,5 C 13,7 C 84 % 1018 hPa #0,0 l/m 6,5 km/h (2 Bft) S-SW - #0 min.